SVA119 OTHH-OEJN

Flight info

Callsign SVA119
Flight time N/A
Altitude 38000
Route TULUB P700 BHR P699 NARMI N112 ULDEG N687 KSA M309 VEMEM
Aircraft B77W/H-SDE1E2E3FGHIJ2J3J4J5M1RWXY/LB1D1

Departure

Time N/A
Airport Hamad International Airport (OTHH)

Arrival

Time 2026-04-29 16:25
Airport King Abdulaziz International Airport (OEJN)
Time Latitude Longitude Altitude Speed Heading
2026-04-29 14:37 26.31570 49.82327 37843 ft 435 kts 265°
2026-04-29 14:37 26.31421 49.75652 37848 ft 432 kts 265°
2026-04-29 14:38 26.31267 49.68951 37855 ft 428 kts 265°
2026-04-29 14:38 26.31113 49.62369 37864 ft 427 kts 265°
2026-04-29 14:39 26.30956 49.55754 37865 ft 427 kts 265°
2026-04-29 14:39 26.30619 49.49165 37857 ft 424 kts 257°
2026-04-29 14:40 26.28877 49.42912 37873 ft 423 kts 247°
2026-04-29 14:40 26.26484 49.38105 37874 ft 425 kts 236°
2026-04-29 14:41 26.23137 49.32694 37869 ft 428 kts 237°
2026-04-29 14:41 26.19872 49.27088 37875 ft 429 kts 238°
2026-04-29 14:42 26.16676 49.21514 37873 ft 430 kts 238°
2026-04-29 14:42 26.13388 49.15950 37874 ft 430 kts 237°
2026-04-29 14:43 26.10077 49.10410 37876 ft 429 kts 237°
2026-04-29 14:43 26.06777 49.04879 37870 ft 429 kts 237°
2026-04-29 14:44 26.03491 48.99364 37875 ft 428 kts 238°
2026-04-29 14:44 26.00203 48.93849 37875 ft 427 kts 237°
2026-04-29 14:45 25.96920 48.88348 37859 ft 427 kts 237°
2026-04-29 14:45 25.93645 48.82833 37875 ft 428 kts 238°
2026-04-29 14:46 25.90469 48.77235 37879 ft 429 kts 239°
2026-04-29 14:46 25.87302 48.71614 37886 ft 430 kts 239°
2026-04-29 14:47 25.84115 48.65992 37882 ft 431 kts 238°
2026-04-29 14:47 25.80910 48.60363 37881 ft 432 kts 238°
2026-04-29 14:48 25.77697 48.54727 37891 ft 433 kts 238°
2026-04-29 14:48 25.74477 48.49084 37889 ft 433 kts 238°
2026-04-29 14:49 25.71247 48.43430 37900 ft 434 kts 239°
2026-04-29 14:49 25.68149 48.37704 37899 ft 433 kts 243°
2026-04-29 14:50 25.65684 48.31632 37899 ft 432 kts 246°
2026-04-29 14:50 25.63249 48.25551 37896 ft 431 kts 246°
2026-04-29 14:51 25.60801 48.19487 37892 ft 431 kts 246°
2026-04-29 14:51 25.58348 48.13429 37905 ft 431 kts 246°
2026-04-29 14:52 25.55892 48.07373 37903 ft 431 kts 246°
2026-04-29 14:52 25.53435 48.01316 37908 ft 431 kts 246°
2026-04-29 14:53 25.50974 47.95265 37914 ft 431 kts 246°
2026-04-29 14:53 25.48555 47.89331 37910 ft 431 kts 246°
2026-04-29 14:54 25.46087 47.83283 37909 ft 431 kts 246°
2026-04-29 14:54 25.43618 47.77236 37923 ft 431 kts 246°
2026-04-29 14:55 25.41150 47.71202 37918 ft 430 kts 246°
2026-04-29 14:55 25.38683 47.65179 37913 ft 430 kts 246°
2026-04-29 14:56 25.36217 47.59161 37911 ft 429 kts 246°
2026-04-29 14:56 25.33753 47.53155 37926 ft 429 kts 246°
2026-04-29 14:57 25.31307 47.47200 37931 ft 428 kts 246°
2026-04-29 14:57 25.28844 47.41211 37927 ft 428 kts 246°
2026-04-29 14:58 25.26379 47.35226 37938 ft 428 kts 245°
2026-04-29 14:58 25.23912 47.29244 37935 ft 428 kts 245°
2026-04-29 14:59 25.21444 47.23270 37938 ft 428 kts 245°
2026-04-29 14:59 25.18976 47.17301 37930 ft 428 kts 245°
2026-04-29 15:00 25.16502 47.11327 37935 ft 428 kts 245°
2026-04-29 15:00 25.14026 47.05358 37941 ft 428 kts 245°
2026-04-29 15:01 25.11546 46.99385 37940 ft 428 kts 245°
2026-04-29 15:01 25.09059 46.93405 37939 ft 429 kts 245°
2026-04-29 15:02 25.06571 46.87428 37936 ft 429 kts 245°
2026-04-29 15:02 25.04076 46.81445 37938 ft 429 kts 245°
2026-04-29 15:03 25.01581 46.75467 37943 ft 429 kts 245°
2026-04-29 15:03 24.99081 46.69486 37940 ft 429 kts 245°
2026-04-29 15:04 24.96231 46.63763 37940 ft 429 kts 238°
2026-04-29 15:04 24.92987 46.58242 37915 ft 429 kts 238°
2026-04-29 15:05 24.89729 46.52670 37934 ft 430 kts 238°
2026-04-29 15:05 24.86495 46.47122 37937 ft 431 kts 238°
2026-04-29 15:06 24.83249 46.41553 37936 ft 432 kts 238°
2026-04-29 15:06 24.79996 46.35975 37940 ft 433 kts 238°
2026-04-29 15:07 24.76738 46.30398 37932 ft 433 kts 238°
2026-04-29 15:07 24.73477 46.24823 37925 ft 433 kts 238°
2026-04-29 15:08 24.70220 46.19260 37928 ft 433 kts 238°
2026-04-29 15:08 24.66959 46.13696 37908 ft 432 kts 238°
2026-04-29 15:09 24.63725 46.08186 37911 ft 432 kts 238°
2026-04-29 15:09 24.60469 46.02644 37914 ft 431 kts 238°
2026-04-29 15:10 24.57214 45.97108 37909 ft 431 kts 238°
2026-04-29 15:10 24.53955 45.91573 37914 ft 431 kts 238°
2026-04-29 15:11 24.50694 45.86041 37901 ft 431 kts 238°
2026-04-29 15:11 24.47434 45.80515 37905 ft 431 kts 238°
2026-04-29 15:12 24.44349 45.74877 37898 ft 430 kts 244°
2026-04-29 15:12 24.41746 45.68962 37888 ft 430 kts 244°
2026-04-29 15:13 24.39137 45.63067 37894 ft 429 kts 244°
2026-04-29 15:13 24.36517 45.57182 37894 ft 429 kts 244°
2026-04-29 15:14 24.33895 45.51308 37888 ft 429 kts 244°
2026-04-29 15:14 24.31270 45.45436 37893 ft 428 kts 244°
2026-04-29 15:15 24.28647 45.39576 37895 ft 428 kts 244°
2026-04-29 15:15 24.26023 45.33720 37895 ft 428 kts 243°
2026-04-29 15:16 24.23395 45.27862 37899 ft 428 kts 243°
2026-04-29 15:16 24.20764 45.22004 37904 ft 429 kts 243°
2026-04-29 15:17 24.18125 45.16136 37912 ft 432 kts 244°
2026-04-29 15:17 24.15439 45.10168 37918 ft 440 kts 244°
2026-04-29 15:18 24.12747 45.04183 37917 ft 442 kts 244°
2026-04-29 15:18 24.10030 44.98148 37933 ft 442 kts 244°
2026-04-29 15:19 24.07294 44.92076 37898 ft 441 kts 244°
2026-04-29 15:19 24.04607 44.86122 37901 ft 438 kts 244°
2026-04-29 15:20 24.01916 44.80167 37903 ft 436 kts 244°
2026-04-29 15:20 23.99231 44.74231 37891 ft 434 kts 243°
2026-04-29 15:21 23.96558 44.68328 37921 ft 432 kts 243°
2026-04-29 15:21 23.93890 44.62444 37912 ft 431 kts 243°
2026-04-29 15:22 23.91454 44.56457 37929 ft 431 kts 248°
2026-04-29 15:22 23.89319 44.50327 37916 ft 432 kts 248°
2026-04-29 15:23 23.87174 44.44185 37904 ft 433 kts 248°
2026-04-29 15:23 23.85012 44.38029 37913 ft 435 kts 248°
2026-04-29 15:24 23.82834 44.31852 37910 ft 436 kts 248°
2026-04-29 15:24 23.81017 44.26708 37910 ft 438 kts 248°
2026-04-29 15:25 23.78822 44.20501 37916 ft 438 kts 248°
2026-04-29 15:25 23.76624 44.14295 37895 ft 438 kts 248°
2026-04-29 15:26 23.74427 44.08100 37892 ft 437 kts 248°
2026-04-29 15:26 23.72230 44.01915 37915 ft 437 kts 248°
2026-04-29 15:27 23.70037 43.95748 37903 ft 436 kts 248°
2026-04-29 15:27 23.67845 43.89595 37909 ft 435 kts 248°
2026-04-29 15:28 23.65670 43.83496 37899 ft 434 kts 248°
2026-04-29 15:28 23.63481 43.77369 37903 ft 433 kts 248°
2026-04-29 15:29 23.61279 43.71212 37909 ft 433 kts 248°
2026-04-29 15:30 23.56910 43.59023 37927 ft 433 kts 248°
2026-04-29 15:30 23.54710 43.52903 37918 ft 434 kts 248°
2026-04-29 15:31 23.52502 43.46767 37912 ft 435 kts 248°
2026-04-29 15:31 23.50293 43.40635 37931 ft 435 kts 248°
2026-04-29 15:32 23.48076 43.34490 37934 ft 436 kts 248°
2026-04-29 15:32 23.45859 43.28352 37935 ft 436 kts 248°
2026-04-29 15:33 23.43636 43.22206 37952 ft 436 kts 248°
2026-04-29 15:33 23.41411 43.16063 37944 ft 436 kts 248°
2026-04-29 15:34 23.39183 43.09929 37951 ft 435 kts 248°
2026-04-29 15:34 23.36954 43.03805 37948 ft 435 kts 248°
2026-04-29 15:35 23.34729 42.97698 37945 ft 434 kts 248°
2026-04-29 15:35 23.32505 42.91600 37955 ft 433 kts 248°
2026-04-29 15:36 23.30285 42.85521 37942 ft 432 kts 248°
2026-04-29 15:36 23.28065 42.79450 37940 ft 432 kts 248°
2026-04-29 15:37 23.25844 42.73386 37950 ft 432 kts 248°
2026-04-29 15:37 23.23631 42.67352 37951 ft 433 kts 248°
2026-04-29 15:38 23.21399 42.61272 37966 ft 433 kts 248°
2026-04-29 15:38 23.19161 42.55185 37942 ft 434 kts 248°
2026-04-29 15:39 23.16921 42.49101 37952 ft 433 kts 248°
2026-04-29 15:39 23.14681 42.43023 37942 ft 433 kts 248°
2026-04-29 15:40 23.12440 42.36954 37957 ft 433 kts 248°
2026-04-29 15:40 23.10239 42.30869 37950 ft 433 kts 249°
2026-04-29 15:41 23.08076 42.24775 37948 ft 432 kts 249°
2026-04-29 15:41 23.05909 42.18691 37954 ft 432 kts 248°
2026-04-29 15:42 23.03735 42.12614 37948 ft 431 kts 248°
2026-04-29 15:42 23.01558 42.06541 37947 ft 432 kts 248°
2026-04-29 15:43 22.99392 42.00507 37953 ft 432 kts 248°
2026-04-29 15:43 22.97208 41.94428 37958 ft 432 kts 248°
2026-04-29 15:44 22.95018 41.88344 37954 ft 433 kts 248°
2026-04-29 15:44 22.92825 41.82265 37962 ft 433 kts 248°
2026-04-29 15:45 22.90627 41.76181 37951 ft 433 kts 248°
2026-04-29 15:45 22.88426 41.70090 37967 ft 433 kts 248°
2026-04-29 15:46 22.86224 41.64009 37970 ft 434 kts 248°
2026-04-29 15:46 22.84017 41.57918 37980 ft 434 kts 248°
2026-04-29 15:47 22.81823 41.51872 37987 ft 434 kts 248°
2026-04-29 15:47 22.79609 41.45782 37983 ft 434 kts 248°
2026-04-29 15:48 22.77396 41.39700 37968 ft 434 kts 248°
2026-04-29 15:48 22.75182 41.33620 37990 ft 434 kts 248°
2026-04-29 15:49 22.72961 41.27538 37988 ft 434 kts 248°
2026-04-29 15:49 22.70732 41.21448 37991 ft 435 kts 248°
2026-04-29 15:50 22.68500 41.15350 37999 ft 435 kts 248°
2026-04-29 15:50 22.66265 41.09256 38006 ft 436 kts 248°
2026-04-29 15:51 22.64025 41.03155 37987 ft 436 kts 248°
2026-04-29 15:51 22.61781 40.97050 37999 ft 436 kts 248°
2026-04-29 15:52 22.59539 40.90951 38013 ft 436 kts 248°
2026-04-29 15:52 22.57290 40.84849 38006 ft 437 kts 248°
2026-04-29 15:53 22.55049 40.78784 38003 ft 437 kts 248°
2026-04-29 15:53 22.52790 40.72684 38013 ft 437 kts 248°
2026-04-29 15:54 22.50529 40.66582 38001 ft 437 kts 248°
2026-04-29 15:54 22.48266 40.60480 38017 ft 437 kts 248°
2026-04-29 15:55 22.46009 40.54403 37830 ft 433 kts 248°
2026-04-29 15:55 22.44883 40.51373 37455 ft 435 kts 248°
2026-04-29 15:55 22.43750 40.48330 37008 ft 437 kts 248°
2026-04-29 15:55 22.42615 40.45279 36606 ft 439 kts 248°
2026-04-29 15:56 22.41473 40.42216 36197 ft 440 kts 248°
2026-04-29 15:56 22.40329 40.39146 35782 ft 441 kts 248°
2026-04-29 15:56 22.39179 40.36065 35364 ft 442 kts 249°
2026-04-29 15:56 22.38413 40.34011 35082 ft 443 kts 249°
2026-04-29 15:57 22.37260 40.30925 34629 ft 444 kts 249°
2026-04-29 15:57 22.36108 40.27840 34089 ft 441 kts 249°
2026-04-29 15:57 22.34966 40.24788 33066 ft 434 kts 249°
2026-04-29 15:57 22.33846 40.21796 32076 ft 425 kts 249°
2026-04-29 15:58 22.32749 40.18866 31116 ft 416 kts 249°
2026-04-29 15:58 22.31676 40.16002 30185 ft 408 kts 249°
2026-04-29 15:58 22.30635 40.13224 29119 ft 401 kts 250°
2026-04-29 15:58 22.29597 40.10454 28060 ft 396 kts 250°
2026-04-29 15:59 22.28566 40.07706 27042 ft 395 kts 250°
2026-04-29 15:59 22.27530 40.04944 26077 ft 398 kts 250°
2026-04-29 15:59 22.26469 40.02172 25122 ft 401 kts 248°
2026-04-29 15:59 22.25094 39.99545 24194 ft 404 kts 240°
2026-04-29 16:00 22.23490 39.97045 23278 ft 405 kts 239°
2026-04-29 16:00 22.21876 39.94553 22208 ft 404 kts 238°
2026-04-29 16:00 22.19988 39.92319 21152 ft 405 kts 221°
2026-04-29 16:00 22.17538 39.90834 20178 ft 406 kts 204°
2026-04-29 16:01 22.14789 39.90180 19244 ft 406 kts 188°
2026-04-29 16:01 22.11972 39.90288 18335 ft 405 kts 174°
2026-04-29 16:01 22.09293 39.91210 17290 ft 405 kts 157°
2026-04-29 16:01 22.06772 39.92484 16295 ft 395 kts 164°
2026-04-29 16:02 22.04143 39.93195 15326 ft 384 kts 173°
2026-04-29 16:02 22.01536 39.93689 14380 ft 377 kts 173°
2026-04-29 16:02 21.98993 39.94208 14229 ft 361 kts 174°
2026-04-29 16:02 21.96572 39.94376 14191 ft 339 kts 185°
2026-04-29 16:03 21.94285 39.94221 14170 ft 317 kts 194°
2026-04-29 16:03 21.92322 39.93368 14141 ft 299 kts 218°
2026-04-29 16:03 21.90841 39.91822 14159 ft 298 kts 236°
2026-04-29 16:03 21.89842 39.89876 14161 ft 297 kts 249°
2026-04-29 16:04 21.89281 39.87754 14147 ft 294 kts 265°
2026-04-29 16:04 21.89417 39.85607 14159 ft 291 kts 277°
2026-04-29 16:04 21.89727 39.83450 14136 ft 292 kts 277°
2026-04-29 16:04 21.90046 39.81254 14138 ft 294 kts 277°
2026-04-29 16:05 21.90355 39.79104 14139 ft 295 kts 277°
2026-04-29 16:05 21.90662 39.76921 14135 ft 296 kts 277°
2026-04-29 16:05 21.90965 39.74727 14122 ft 296 kts 277°
2026-04-29 16:05 21.91265 39.72527 14121 ft 297 kts 277°
2026-04-29 16:06 21.91563 39.70323 14124 ft 298 kts 277°
2026-04-29 16:06 21.91859 39.68117 14116 ft 298 kts 277°
2026-04-29 16:06 21.92154 39.65908 14100 ft 298 kts 277°
2026-04-29 16:06 21.92448 39.63705 14103 ft 297 kts 277°
2026-04-29 16:07 21.92740 39.61505 14102 ft 297 kts 277°
2026-04-29 16:07 21.92937 39.60017 14096 ft 297 kts 277°
2026-04-29 16:07 21.93323 39.57108 14083 ft 296 kts 277°
2026-04-29 16:07 21.93614 39.54919 14085 ft 295 kts 277°
2026-04-29 16:08 21.93902 39.52735 14083 ft 295 kts 277°
2026-04-29 16:08 21.94142 39.50558 14075 ft 291 kts 269°
2026-04-29 16:08 21.93789 39.48427 14062 ft 291 kts 250°
2026-04-29 16:08 21.92950 39.46440 14069 ft 292 kts 246°
2026-04-29 16:09 21.92055 39.44466 13946 ft 297 kts 245°
2026-04-29 16:09 21.91133 39.42440 13482 ft 303 kts 245°
2026-04-29 16:09 21.90201 39.40387 12967 ft 307 kts 245°
2026-04-29 16:09 21.89269 39.38320 12496 ft 308 kts 245°
2026-04-29 16:10 21.88343 39.36256 12132 ft 300 kts 245°
2026-04-29 16:10 21.87449 39.34260 11620 ft 291 kts 245°
2026-04-29 16:10 21.86588 39.32333 11181 ft 280 kts 245°
2026-04-29 16:10 21.85758 39.30475 10773 ft 271 kts 245°
2026-04-29 16:11 21.84956 39.28680 10387 ft 261 kts 245°
2026-04-29 16:11 21.84181 39.26945 10021 ft 252 kts 244°
2026-04-29 16:11 21.83433 39.25273 9651 ft 244 kts 244°
2026-04-29 16:11 21.82523 39.23791 9235 ft 235 kts 221°
2026-04-29 16:12 21.81115 39.23000 8922 ft 227 kts 197°
2026-04-29 16:12 21.80087 39.22813 8706 ft 227 kts 186°
2026-04-29 16:12 21.77976 39.23216 8302 ft 244 kts 162°
2026-04-29 16:12 21.76366 39.23877 7933 ft 251 kts 163°
2026-04-29 16:13 21.74717 39.24532 7562 ft 255 kts 163°
2026-04-29 16:13 21.73051 39.25191 7288 ft 254 kts 163°
2026-04-29 16:13 21.71388 39.25851 6988 ft 254 kts 163°
2026-04-29 16:13 21.69758 39.26502 6848 ft 246 kts 163°
2026-04-29 16:14 21.68700 39.26924 6665 ft 245 kts 163°
2026-04-29 16:14 21.67064 39.27571 6110 ft 251 kts 162°
2026-04-29 16:14 21.65452 39.28210 5708 ft 243 kts 162°
2026-04-29 16:14 21.63878 39.28829 5310 ft 238 kts 162°
2026-04-29 16:15 21.62346 39.29436 4957 ft 232 kts 162°
2026-04-29 16:15 21.60815 39.30032 4634 ft 230 kts 164°
2026-04-29 16:15 21.59342 39.30609 4342 ft 231 kts 163°
2026-04-29 16:15 21.57816 39.31207 3971 ft 234 kts 163°
2026-04-29 16:16 21.56272 39.31813 3678 ft 233 kts 163°
2026-04-29 16:16 21.54751 39.32408 3297 ft 238 kts 162°
2026-04-29 16:16 21.53171 39.33025 3022 ft 237 kts 162°
2026-04-29 16:16 21.51673 39.33615 3002 ft 222 kts 162°
2026-04-29 16:17 21.50258 39.34169 3010 ft 217 kts 163°
2026-04-29 16:17 21.48851 39.34721 3019 ft 214 kts 163°
2026-04-29 16:17 21.47424 39.34978 3014 ft 207 kts 194°
2026-04-29 16:17 21.46189 39.34307 3036 ft 197 kts 232°
2026-04-29 16:18 21.45623 39.32999 3051 ft 193 kts 262°
2026-04-29 16:18 21.45508 39.31576 3029 ft 190 kts 273°
2026-04-29 16:18 21.45649 39.30172 3008 ft 190 kts 283°
2026-04-29 16:18 21.46084 39.28841 3027 ft 188 kts 296°
2026-04-29 16:19 21.46803 39.27683 3015 ft 185 kts 309°
2026-04-29 16:19 21.47680 39.26728 3020 ft 176 kts 317°
2026-04-29 16:19 21.48647 39.25933 3017 ft 178 kts 322°
2026-04-29 16:19 21.49692 39.25209 3019 ft 179 kts 328°
2026-04-29 16:20 21.50783 39.24587 3014 ft 176 kts 330°
2026-04-29 16:20 21.51854 39.24004 3006 ft 170 kts 332°
2026-04-29 16:20 21.52952 39.23492 2791 ft 173 kts 335°
2026-04-29 16:20 21.54060 39.23032 2582 ft 166 kts 338°
2026-04-29 16:21 21.55106 39.22614 2375 ft 157 kts 339°
2026-04-29 16:21 21.56153 39.22198 2197 ft 163 kts 339°
2026-04-29 16:21 21.57213 39.21781 1985 ft 159 kts 340°
2026-04-29 16:21 21.58258 39.21367 1768 ft 161 kts 339°
2026-04-29 16:22 21.59300 39.20955 1568 ft 158 kts 340°
2026-04-29 16:22 21.60301 39.20560 1332 ft 143 kts 341°
2026-04-29 16:22 21.61166 39.20217 1155 ft 125 kts 341°
2026-04-29 16:22 21.61940 39.19912 1024 ft 116 kts 341°
2026-04-29 16:23 21.62753 39.19591 883 ft 125 kts 342°
2026-04-29 16:23 21.63578 39.19261 744 ft 131 kts 341°
2026-04-29 16:23 21.64409 39.18915 523 ft 126 kts 343°
2026-04-29 16:23 21.65232 39.18601 377 ft 125 kts 342°
2026-04-29 16:24 21.66046 39.18284 210 ft 126 kts 340°
2026-04-29 16:24 21.66875 39.17957 55 ft 127 kts 340°
2026-04-29 16:24 21.67638 39.17658 39 ft 100 kts 339°
2026-04-29 16:24 21.68138 39.17463 33 ft 56 kts 340°
2026-04-29 16:25 21.68344 39.17296 30 ft 36 kts 309°
2026-04-29 16:25 21.68419 39.17158 31 ft 14 kts 248°
2026-04-29 16:25 21.68352 39.17145 32 ft 0 kts 167°
2026-04-29 16:26 21.68347 39.17146 32 ft 1 kts 167°
2026-04-29 16:26 21.68335 39.17149 32 ft 2 kts 167°
2026-04-29 16:26 21.68317 39.17155 32 ft 3 kts 163°
2026-04-29 16:27 21.68293 39.17164 32 ft 4 kts 161°
2026-04-29 16:27 21.68286 39.17166 32 ft 0 kts 161°
2026-04-29 16:28 21.68223 39.17193 34 ft 20 kts 158°
2026-04-29 16:28 21.68091 39.17244 36 ft 21 kts 161°
2026-04-29 16:28 21.67958 39.17217 35 ft 21 kts 200°
2026-04-29 16:28 21.67817 39.17253 35 ft 21 kts 159°
2026-04-29 16:29 21.67674 39.17309 35 ft 22 kts 160°
2026-04-29 16:29 21.67528 39.17367 35 ft 22 kts 160°
2026-04-29 16:29 21.67380 39.17425 35 ft 26 kts 160°
2026-04-29 16:29 21.67193 39.17498 35 ft 29 kts 160°
2026-04-29 16:30 21.67006 39.17567 35 ft 27 kts 176°
2026-04-29 16:30 21.66914 39.17439 35 ft 22 kts 250°
2026-04-29 16:30 21.66849 39.17301 35 ft 17 kts 207°
2026-04-29 16:30 21.66738 39.17317 35 ft 10 kts 175°
2026-04-29 16:31 21.66694 39.17261 35 ft 8 kts 242°
2026-04-29 16:31 21.66685 39.17238 35 ft 3 kts 248°
2026-04-29 16:31 21.66683 39.17232 35 ft 0 kts 248°